Regional Weather Roundup
Issued by NWS

Home | Current Version | Previous Version | Text Only | Print | Product List | Glossary Off
Versions: 1 2 3 4 5 6 7 8 9 10 11 12 13 14 15 16 17 18 19 20 21 22 23 24 25 26 27 28 29 30 31 32 33 34 35 36 37 38 39 40 41 42 43 44 45 46 47 48 49 50

000
ASUS43 KBIS 031910
RWRND

NORTH DAKOTA REGIONAL WEATHER ROUNDUP
NATIONAL WEATHER SERVICE BISMARCK ND
200 PM CDT TUE MAY 03 2016

NOTE: "FAIR" INDICATES FEW OR NO CLOUDS BELOW 12,000 FEET WITH NO
SIGNIFICANT WEATHER AND/OR OBSTRUCTIONS TO VISIBILITY.


NDZ001>003-009>011-017-032000-
NORTHWEST NORTH DAKOTA

CITY           SKY/WX    TMP DP  RH WIND       PRES   REMARKS
WILLISTON      SUNNY     80  38  22 N15G23    30.05F
MINOT          SUNNY     77  31  18 NW20G28   30.01S
MINOT AFB      SUNNY     72  33  24 N14G31    30.00S
$$

NDZ018>021-031>035-040>046-032000-
SOUTHWEST NORTH DAKOTA

CITY           SKY/WX    TMP DP  RH WIND       PRES   REMARKS
BISMARCK       SUNNY     77  39  25 N20G28    29.97F
DICKINSON      SUNNY     74  35  24 N14G22    30.03F
GARRISON         N/A     74  34  23 N21G26    30.00F
HETTINGER ARPT SUNNY     74  33  22 N15       30.06F
$$

NDZ004>008-012>016-024-026-027-054-032000-
NORTHEAST NORTH DAKOTA

CITY           SKY/WX    TMP DP  RH WIND       PRES   REMARKS
GRAND FORKS    MOSUNNY   67  31  26 N24G38    29.88S
GRND FRKS AFB  SUNNY     67  28  23 N25G32    29.90S
DEVILS LAKE    SUNNY     66  30  26 NW22G29   29.95F
$$

NDZ022-023-025-028>030-036>039-047>053-032000-
SOUTHEAST NORTH DAKOTA

CITY           SKY/WX    TMP DP  RH WIND       PRES   REMARKS
FARGO          SUNNY     72  28  19 N26G37    29.84S
JAMESTOWN      SUNNY     70  29  21 N25G40    29.91F
$$





USA.gov is the U.S. government's official web portal to all federal, state and local government web resources and services.